SCP
0 0 0 0 0 0 0 0 0 0 0 0 0 0 0 0 0 0 0 0 0 0 0 0 0 0 0 0 0 0 0 0
0 0 0 0 0 0 0 0 0 0 0 0 0 0 0 0 0 0 0 0 0 0 0 0 0 0 0 0 0 0 0 0
0 0 0 0 0 0 0 0 0 0 0 0 0 0 0 0 0 0 0 0 0 0 0 0 0 0 0 0 0 0 0 0
0 0 0 0 0 0 0 0 0 0 0 0 0 0 0 0 0 0 0 0 0 0 0 0 0 0 0 0 0 0 0 0
0 0 0 0 0 0 0 0 0 0 0 0 0 0 0 0 0 0 0 0 0 0 0 0 0 0 0 0 0 0 0 0
0 0 0 0 0 0 0 0 0 0 0 0 0 0 0 0 0 0 0 0 0 0 0 0 0 0 0 0 0 0 0 0
-0 -0 0 0 0 0 0 0 0 0 0 0 0 0 0 0 0 0 0 0 0 0 0 0 0 0 0 0 0 0 0 0
-0 0 0 0 0 0 0 0 0 0 0 0 0 0 0 0 0 0 0 0 0 0 0 0 0 0 0 0 0 0 0 0
-0 0 0 0 0 0 0 0 0 0 0 0 0 0 0 0 0 0 0 0 0 0 0 0 0 0 0 0 0 0 0 0
-0 0 0 0 0 0 0 0 0 0 0 0 0 0 0 0 0 0 0 0 0 0 0 0 0 0 0 0 0 0 0 0
0 0 0 0 0 0 0 0 0 0 0 0 0 0 0 0 0 0 0 0 0 0 0 0 0 0 0 0 0 0 0 0
0 0 0 0 0 0 0 0 0 0 0 0 0 0 0 0 0 0 0 0 0 0 0 0 0 0 0 0 0 0 0 0
0 0 0 0 0 0 0 0 0 0 0 0 0 0 0 0 0 0 0 0 0 0 0 0 0 0 0 0 0 0 0 0
0 0 0 0 0 0 0 0 0 0 0 0 0 0 0 0 0 0 0 0 0 0 0 0 0 0 0 0 0 0 0 0
0 0 0 0 0 0 0 0 0 0 0 0 0 0 0 0 0 0 0 0 0 0 0 0 0 0 0 0 0 0 0 0
0 0 0 0 0 0 0 0 0 0 0 0 0 0 0 0 0 0 0 0 0 0 0 0 0 0 0 0 0 0 0 0
0 0 0 0 0 0 0 0 0 0 0 0 0 0 0 0 0 0 0 0 0 0 0 0 0 0 0 0 0 0 0 0
0 0 0 0 0 0 0 0 0 0 0 0 0 0 0 0 0 0 0 0 0 0 0 0 0 0 0 0 0 0 0 0
0 0 0 0 0 0 0 0 0 0 0 0 0 0 0 0 0 0 0 0 0 0 0 0 0 0 0 0 0 0 0 0
Wind_Speed_500mb
34 30 28 26 30 23 16 6 13 16 20 20 21 23 21 26 26 28 38 39 34 41 44 36 40 33 36 39 49 55 42 42
38 31 27 26 25 21 14 9 11 12 15 23 23 23 25 27 31 31 31 38 35 45 43 39 41 33 39 47 53 51 51 43
42 32 27 22 20 17 13 7 4 13 18 16 26 26 24 28 25 34 32 30 44 40 41 45 43 42 42 50 51 53 48 42
44 34 27 22 17 17 9 5 7 20 25 14 23 21 23 27 33 32 38 42 38 42 43 44 46 43 48 49 45 45 49 51
41 38 29 22 21 12 11 4 6 15 21 19 24 23 28 31 34 38 46 39 41 40 42 43 43 50 45 46 48 48 51 58
45 35 30 25 14 13 9 4 11 18 18 25 26 26 30 32 38 45 42 45 38 41 41 46 55 47 49 50 53 59 65 49
43 38 34 22 16 13 4 5 12 18 20 23 26 31 38 39 40 44 44 46 47 45 47 54 52 51 50 56 64 64 54 53
52 38 30 20 15 7 4 7 12 17 20 23 28 32 35 39 41 46 50 49 52 51 53 59 55 52 59 61 62 55 55 51
44 35 27 20 12 7 2 9 12 17 22 26 29 34 37 39 43 47 48 52 53 52 59 56 54 68 64 69 62 57 50 51
41 31 23 18 12 5 5 8 14 19 22 28 31 35 39 43 46 47 51 54 54 57 58 52 70 71 64 58 55 50 42 45
33 27 23 18 10 6 11 15 16 19 26 29 32 37 40 44 47 51 52 57 58 60 61 76 72 60 60 48 40 39 35 36
29 26 21 16 11 10 12 13 18 23 28 30 36 40 44 47 50 52 56 60 60 61 61 79 50 67 44 38 35 31 29 30
29 25 20 15 11 11 15 17 21 25 28 33 40 42 47 51 54 57 58 61 60 58 90 58 77 48 46 40 32 29 24 25
28 23 18 14 11 13 12 16 21 25 29 34 41 47 52 56 57 58 59 59 61 79 87 59 60 50 51 50 38 28 20 15
26 22 17 13 12 13 13 18 23 26 29 36 43 50 52 57 58 59 59 60 74 85 73 78 51 52 52 46 43 34 23 14
24 20 17 13 15 12 14 18 23 27 33 37 43 46 50 56 57 60 61 68 74 73 83 72 59 53 53 49 43 37 34 28
24 19 17 14 14 12 15 20 25 29 34 38 41 48 52 56 59 64 66 68 66 81 93 83 72 60 42 44 53 50 45 36
23 20 17 15 15 12 17 21 25 30 33 37 42 48 55 56 61 65 69 69 77 84 89 90 91 62 44 56 69 67 57 48
24 22 20 19 13 19 19 22 27 30 34 39 43 50 54 60 65 67 69 72 74 80 76 91 101 83 52 66 75 77 74 68
Wind_Direction_500mb
179 178 185 174 175 162 184 199 256 331 359 313 312 309 304 302 306 302 303 314 313 312 315 315 305 311 308 297 295 302 306 307
173 178 167 164 164 157 184 215 289 338 323 308 317 321 320 316 310 316 310 312 306 310 313 305 305 301 301 301 304 305 306 305
162 153 165 175 167 168 182 223 308 301 318 350 321 319 330 319 310 307 323 301 313 309 303 307 304 302 302 298 299 298 301 307
147 154 167 176 172 183 180 212 307 314 333 337 312 345 318 315 319 324 309 315 310 310 308 306 304 301 298 297 297 289 295 305
149 160 164 181 181 163 189 196 324 326 339 350 344 334 331 329 326 320 318 322 314 312 311 307 299 300 298 296 291 285 290 296
148 157 165 172 163 170 192 38 335 341 352 340 345 338 333 337 329 319 329 316 324 317 311 303 309 307 302 294 292 291 295 290
143 150 151 152 158 166 85 10 336 344 348 344 344 344 340 334 332 329 327 329 321 317 315 315 313 310 301 292 293 292 289 283
138 130 137 149 149 118 48 349 347 347 346 348 344 343 342 332 332 332 331 330 327 324 325 319 319 306 300 300 296 286 285 275
117 130 143 147 127 114 52 6 354 354 353 348 348 343 337 337 336 337 335 330 329 331 325 324 314 310 311 306 299 295 286 272
120 128 135 132 133 123 47 23 9 2 354 351 347 344 343 342 341 339 339 335 336 331 333 323 318 317 318 314 304 296 283 270
119 130 132 131 131 76 39 29 15 360 356 356 348 347 348 345 344 345 344 344 342 341 329 322 331 331 325 322 317 309 283 272
132 131 128 120 106 62 42 26 5 7 1 356 349 352 352 351 351 350 350 349 349 346 328 333 338 339 340 338 326 315 299 283
133 130 124 111 92 55 41 13 12 8 3 355 353 357 356 355 358 357 356 355 357 337 344 352 341 348 351 339 329 323 305 282
132 127 121 106 80 62 32 21 16 13 4 359 357 2 360 1 1 2 358 0 355 345 0 1 351 354 353 352 352 347 343 320
134 127 116 100 79 60 32 21 20 15 7 6 2 6 1 5 5 5 3 5 1 3 360 358 357 4 359 359 14 19 26 21
136 127 115 101 77 54 39 29 23 17 12 8 8 8 6 8 7 10 7 6 5 7 356 17 15 12 12 17 35 39 51 69
132 124 115 95 84 62 43 33 29 23 17 11 9 12 9 12 10 10 13 13 6 3 16 29 26 25 28 44 49 55 57 70
131 122 111 101 88 70 52 38 32 28 21 12 15 16 15 14 15 14 17 12 13 11 15 34 36 34 43 51 57 61 71 72
129 121 116 104 98 72 58 43 34 30 25 17 17 21 19 16 19 18 17 15 16 15 14 32 39 42 47 60 64 67 70 75
Wind_Speed_850mb
34 30 28 26 30 23 16 6 13 16 20 20 21 23 21 26 26 28 38 39 34 41 44 36 40 33 36 39 49 55 42 42
38 31 27 26 25 21 14 9 11 12 15 23 23 23 25 27 31 31 31 38 35 45 43 39 41 33 39 47 53 51 51 43
42 32 27 22 20 17 13 7 4 13 18 16 26 26 24 28 25 34 32 30 44 40 41 45 43 42 42 50 51 53 48 42
44 34 27 22 17 17 9 5 7 20 25 14 23 21 23 27 33 32 38 42 38 42 43 44 46 43 48 49 45 45 49 51
41 38 29 22 21 12 11 4 6 15 21 19 24 23 28 31 34 38 46 39 41 40 42 43 43 50 45 46 48 48 51 58
45 35 30 25 14 13 9 4 11 18 18 25 26 26 30 32 38 45 42 45 38 41 41 46 55 47 49 50 53 59 65 49
43 38 34 22 16 13 4 5 12 18 20 23 26 31 38 39 40 44 44 46 47 45 47 54 52 51 50 56 64 64 54 53
52 38 30 20 15 7 4 7 12 17 20 23 28 32 35 39 41 46 50 49 52 51 53 59 55 52 59 61 62 55 55 51
44 35 27 20 12 7 2 9 12 17 22 26 29 34 37 39 43 47 48 52 53 52 59 56 54 68 64 69 62 57 50 51
41 31 23 18 12 5 5 8 14 19 22 28 31 35 39 43 46 47 51 54 54 57 58 52 70 71 64 58 55 50 42 45
33 27 23 18 10 6 11 15 16 19 26 29 32 37 40 44 47 51 52 57 58 60 61 76 72 60 60 48 40 39 35 36
29 26 21 16 11 10 12 13 18 23 28 30 36 40 44 47 50 52 56 60 60 61 61 79 50 67 44 38 35 31 29 30
29 25 20 15 11 11 15 17 21 25 28 33 40 42 47 51 54 57 58 61 60 58 90 58 77 48 46 40 32 29 24 25
28 23 18 14 11 13 12 16 21 25 29 34 41 47 52 56 57 58 59 59 61 79 87 59 60 50 51 50 38 28 20 15
26 22 17 13 12 13 13 18 23 26 29 36 43 50 52 57 58 59 59 60 74 85 73 78 51 52 52 46 43 34 23 14
24 20 17 13 15 12 14 18 23 27 33 37 43 46 50 56 57 60 61 68 74 73 83 72 59 53 53 49 43 37 34 28
24 19 17 14 14 12 15 20 25 29 34 38 41 48 52 56 59 64 66 68 66 81 93 83 72 60 42 44 53 50 45 36
23 20 17 15 15 12 17 21 25 30 33 37 42 48 55 56 61 65 69 69 77 84 89 90 91 62 44 56 69 67 57 48
24 22 20 19 13 19 19 22 27 30 34 39 43 50 54 60 65 67 69 72 74 80 76 91 101 83 52 66 75 77 74 68
Wind_Direction_850mb
179 178 185 174 175 162 184 199 256 331 359 313 312 309 304 302 306 302 303 314 313 312 315 315 305 311 308 297 295 302 306 307
173 178 167 164 164 157 184 215 289 338 323 308 317 321 320 316 310 316 310 312 306 310 313 305 305 301 301 301 304 305 306 305
162 153 165 175 167 168 182 223 308 301 318 350 321 319 330 319 310 307 323 301 313 309 303 307 304 302 302 298 299 298 301 307
147 154 167 176 172 183 180 212 307 314 333 337 312 345 318 315 319 324 309 315 310 310 308 306 304 301 298 297 297 289 295 305
149 160 164 181 181 163 189 196 324 326 339 350 344 334 331 329 326 320 318 322 314 312 311 307 299 300 298 296 291 285 290 296
148 157 165 172 163 170 192 38 335 341 352 340 345 338 333 337 329 319 329 316 324 317 311 303 309 307 302 294 292 291 295 290
143 150 151 152 158 166 85 10 336 344 348 344 344 344 340 334 332 329 327 329 321 317 315 315 313 310 301 292 293 292 289 283
138 130 137 149 149 118 48 349 347 347 346 348 344 343 342 332 332 332 331 330 327 324 325 319 319 306 300 300 296 286 285 275
117 130 143 147 127 114 52 6 354 354 353 348 348 343 337 337 336 337 335 330 329 331 325 324 314 310 311 306 299 295 286 272
120 128 135 132 133 123 47 23 9 2 354 351 347 344 343 342 341 339 339 335 336 331 333 323 318 317 318 314 304 296 283 270
119 130 132 131 131 76 39 29 15 360 356 356 348 347 348 345 344 345 344 344 342 341 329 322 331 331 325 322 317 309 283 272
132 131 128 120 106 62 42 26 5 7 1 356 349 352 352 351 351 350 350 349 349 346 328 333 338 339 340 338 326 315 299 283
133 130 124 111 92 55 41 13 12 8 3 355 353 357 356 355 358 357 356 355 357 337 344 352 341 348 351 339 329 323 305 282
132 127 121 106 80 62 32 21 16 13 4 359 357 2 360 1 1 2 358 0 355 345 0 1 351 354 353 352 352 347 343 320
134 127 116 100 79 60 32 21 20 15 7 6 2 6 1 5 5 5 3 5 1 3 360 358 357 4 359 359 14 19 26 21
136 127 115 101 77 54 39 29 23 17 12 8 8 8 6 8 7 10 7 6 5 7 356 17 15 12 12 17 35 39 51 69
132 124 115 95 84 62 43 33 29 23 17 11 9 12 9 12 10 10 13 13 6 3 16 29 26 25 28 44 49 55 57 70
131 122 111 101 88 70 52 38 32 28 21 12 15 16 15 14 15 14 17 12 13 11 15 34 36 34 43 51 57 61 71 72
129 121 116 104 98 72 58 43 34 30 25 17 17 21 19 16 19 18 17 15 16 15 14 32 39 42 47 60 64 67 70 75